Location: Alando
(42.3054°N, 9.2895°E)
Time: 19:52:27
(UTC+00:00)

Cosmos 2082 Rocket - Pass Details

Date: 09 April 2020
Orbit: 831 x 855 km, 71.0° (Epoch: 31 May)

Event Time Altitude Azimuth Distance (km) Brightness Sun altitude
Exits shadow 20:33:55 14° 50° (NE) 2,206 4.3 -26.5°
Drops below altitude 10° 20:34:44 10° 45° (NE) 2,462 4.6 -26.6°
Sets 20:37:28 0° 35° (NE) 3,405 5.4 -27.0°
